Hourly Weather Bolshie Medvedki

Today, 20 June, Sunday

Time Temperature Precipitation Wind Pressure Humidity
00:00 +18°C° 0 mm 2 mps 748 mmHg 88%
01:00 +18°C° 0 mm 1 mps 748 mmHg 88%
02:00 +18°C° 0 mm 1 mps 748 mmHg 88%
03:00 +16°C° 0 mm 1 mps 748 mmHg 88%
04:00 +18°C° 0 mm 1 mps 748 mmHg 87%
05:00 +18°C° 0 mm 1 mps 748 mmHg 86%
06:00 +18°C° 0 mm 2 mps 748 mmHg 85%
07:00 +19°C° 0 mm 2 mps 748 mmHg 80%
08:00 +21°C° 0 mm 2 mps 748 mmHg 74%
09:00 +22°C° 0 mm 3 mps 748 mmHg 69%
10:00 +24°C° 0 mm 3 mps 748 mmHg 66%
11:00 +25°C° 0 mm 3 mps 748 mmHg 63%
12:00 +26°C° 0 mm 4 mps 747 mmHg 59%
13:00 +26°C° 0 mm 3 mps 747 mmHg 58%
14:00 +27°C° 0 mm 3 mps 747 mmHg 57%
15:00 +27°C° 0 mm 3 mps 747 mmHg 56%
16:00 +27°C° 0 mm 3 mps 747 mmHg 60%
17:00 +27°C° 0 mm 3 mps 746 mmHg 64%
18:00 +26°C° 0 mm 2 mps 746 mmHg 68%
19:00 +25°C° 0 mm 2 mps 746 mmHg 73%
20:00 +23°C° 0 mm 2 mps 746 mmHg 77%
21:00 +20°C° 0 mm 2 mps 746 mmHg 82%
22:00 +20°C° 0 mm 2 mps 746 mmHg 83%
23:00 +19°C° 0 mm 2 mps 746 mmHg 84%

Tomorrow, 21 June, Monday

Time Temperature Precipitation Wind Pressure Humidity
00:00 +19°C° 0 mm 2 mps 746 mmHg 84%
01:00 +18°C° 0 mm 2 mps 746 mmHg 85%
02:00 +18°C° 0 mm 2 mps 746 mmHg 85%
03:00 +18°C° 0 mm 2 mps 746 mmHg 86%
04:00 +18°C° 0 mm 2 mps 746 mmHg 87%
05:00 +18°C° 0 mm 2 mps 746 mmHg 87%
06:00 +19°C° 0 mm 2 mps 746 mmHg 88%
07:00 +20°C° 0 mm 3 mps 746 mmHg 82%
08:00 +22°C° 0 mm 3 mps 746 mmHg 77%
09:00 +23°C° 0 mm 4 mps 746 mmHg 71%
10:00 +25°C° 0 mm 4 mps 746 mmHg 68%
11:00 +26°C° 0 mm 4 mps 746 mmHg 65%
12:00 +27°C° 0 mm 5 mps 746 mmHg 62%
13:00 +28°C° 0 mm 5 mps 746 mmHg 62%
14:00 +28°C° 0 mm 4 mps 746 mmHg 63%
15:00 +28°C° 0 mm 4 mps 746 mmHg 64%
16:00 +28°C° 0 mm 4 mps 745 mmHg 68%
17:00 +27°C° 0 mm 3 mps 745 mmHg 72%
18:00 +27°C° 0 mm 2 mps 745 mmHg 76%
19:00 +26°C° 0 mm 2 mps 745 mmHg 79%
20:00 +25°C° 0 mm 3 mps 745 mmHg 83%
21:00 +22°C° 0 mm 3 mps 745 mmHg 86%
22:00 +22°C° 0 mm 3 mps 745 mmHg 87%
23:00 +21°C° 0 mm 3 mps 745 mmHg 88%

Day after tomorrow, 22 June, Tuesday

Time Temperature Precipitation Wind Pressure Humidity
00:00 +20°C° 0 mm 3 mps 745 mmHg 90%
01:00 +20°C° 0 mm 3 mps 745 mmHg 90%
02:00 +19°C° 0 mm 3 mps 745 mmHg 91%
03:00 +19°C° 0 mm 3 mps 746 mmHg 91%
04:00 +19°C° 0 mm 3 mps 746 mmHg 90%
05:00 +20°C° 0 mm 3 mps 746 mmHg 89%
06:00 +20°C° 0 mm 3 mps 746 mmHg 89%
07:00 +22°C° 0 mm 3 mps 746 mmHg 83%
08:00 +25°C° 0 mm 4 mps 746 mmHg 77%
09:00 +26°C° 0 mm 4 mps 746 mmHg 71%
10:00 +27°C° 0 mm 4 mps 746 mmHg 67%
11:00 +28°C° 0 mm 4 mps 746 mmHg 63%
12:00 +29°C° 0 mm 5 mps 746 mmHg 59%
13:00 +30°C° 0 mm 4 mps 746 mmHg 59%
14:00 +30°C° 0 mm 4 mps 746 mmHg 58%
15:00 +32°C° 0 mm 4 mps 746 mmHg 57%
16:00 +30°C° 0 mm 4 mps 746 mmHg 62%
17:00 +30°C° 0 mm 3 mps 746 mmHg 66%
18:00 +29°C° 0 mm 3 mps 746 mmHg 71%
19:00 +27°C° 0 mm 3 mps 746 mmHg 75%
20:00 +26°C° 0 mm 3 mps 746 mmHg 80%
21:00 +24°C° 0 mm 3 mps 746 mmHg 84%
22:00 +24°C° 0 mm 3 mps 746 mmHg 84%
23:00 +22°C° 0 mm 3 mps 746 mmHg 83%

23 June, Wednesday

Time Temperature Precipitation Wind Pressure Humidity
00:00 +21°C° 0 mm 3 mps 746 mmHg 83%
01:00 +21°C° 0 mm 3 mps 746 mmHg 83%
02:00 +20°C° 0 mm 3 mps 746 mmHg 83%
03:00 +20°C° 0 mm 3 mps 746 mmHg 83%
04:00 +20°C° 0 mm 3 mps 746 mmHg 83%
05:00 +20°C° 0 mm 3 mps 746 mmHg 84%
06:00 +21°C° 0 mm 3 mps 746 mmHg 84%
07:00 +22°C° 0 mm 3 mps 746 mmHg 79%
08:00 +25°C° 0 mm 3 mps 746 mmHg 74%
09:00 +27°C° 0 mm 4 mps 746 mmHg 69%
10:00 +28°C° 0 mm 4 mps 746 mmHg 65%
11:00 +29°C° 0 mm 4 mps 746 mmHg 61%
12:00 +30°C° 0 mm 4 mps 746 mmHg 57%
13:00 +30°C° 0 mm 4 mps 746 mmHg 55%
14:00 +32°C° 0 mm 4 mps 746 mmHg 54%
15:00 +32°C° 0 mm 4 mps 746 mmHg 53%
16:00 +31°C° 0 mm 3 mps 746 mmHg 58%
17:00 +30°C° 0 mm 3 mps 746 mmHg 63%
18:00 +30°C° 0 mm 3 mps 746 mmHg 68%
19:00 +28°C° 0 mm 2 mps 746 mmHg 72%
20:00 +27°C° 0 mm 2 mps 746 mmHg 77%
21:00 +25°C° 0 mm 2 mps 746 mmHg 81%
22:00 +24°C° 0 mm 2 mps 746 mmHg 82%
23:00 +24°C° 0 mm 2 mps 746 mmHg 84%

24 June, Thursday

Time Temperature Precipitation Wind Pressure Humidity
00:00 +23°C° 0 mm 2 mps 745 mmHg 85%
01:00 +23°C° 0 mm 2 mps 746 mmHg 86%
02:00 +23°C° 0 mm 2 mps 746 mmHg 88%
03:00 +21°C° 0 mm 2 mps 746 mmHg 89%
04:00 +23°C° 0 mm 2 mps 746 mmHg 88%
05:00 +23°C° 0 mm 1 mps 746 mmHg 87%
06:00 +24°C° 0 mm 1 mps 746 mmHg 86%
07:00 +25°C° 0 mm 2 mps 746 mmHg 81%
08:00 +27°C° 0 mm 2 mps 746 mmHg 77%
09:00 +28°C° 0 mm 2 mps 746 mmHg 72%
10:00 +29°C° 0 mm 2 mps 746 mmHg 68%
11:00 +30°C° 0 mm 2 mps 746 mmHg 64%
12:00 +31°C° 0 mm 2 mps 746 mmHg 60%
13:00 +32°C° 0 mm 2 mps 746 mmHg 58%
14:00 +32°C° 0 mm 1 mps 746 mmHg 56%
15:00 +32°C° 0 mm 1 mps 746 mmHg 53%
16:00 +32°C° 0 mm 1 mps 746 mmHg 56%
17:00 +32°C° 0 mm 1 mps 745 mmHg 59%
18:00 +32°C° 0 mm 1 mps 745 mmHg 61%
19:00 +30°C° 0 mm 1 mps 745 mmHg 65%
20:00 +28°C° 0 mm 1 mps 745 mmHg 69%
21:00 +27°C° 0 mm 1 mps 745 mmHg 73%
22:00 +26°C° 0 mm 2 mps 744 mmHg 75%
23:00 +25°C° 0 mm 2 mps 744 mmHg 78%

25 June, Friday

Time Temperature Precipitation Wind Pressure Humidity
00:00 +24°C° 0 mm 2 mps 744 mmHg 80%
01:00 +24°C° 0 mm 2 mps 744 mmHg 82%
02:00 +24°C° 0 mm 1 mps 744 mmHg 83%
03:00 +23°C° 0 mm 1 mps 744 mmHg 84%
04:00 +24°C° 0 mm 1 mps 744 mmHg 84%
05:00 +24°C° 0 mm 1 mps 744 mmHg 83%
06:00 +25°C° 0 mm 1 mps 744 mmHg 83%
07:00 +26°C° 0 mm 1 mps 744 mmHg 78%
08:00 +28°C° 0 mm 1 mps 744 mmHg 72%
09:00 +29°C° 0 mm 1 mps 744 mmHg 67%
10:00 +30°C° 0.3 mm 2 mps 744 mmHg 65%
11:00 +31°C° 0.3 mm 3 mps 744 mmHg 62%
12:00 +32°C° 0.3 mm 4 mps 744 mmHg 59%
13:00 +31°C° 0.1 mm 3 mps 744 mmHg 60%
14:00 +30°C° 0.1 mm 3 mps 744 mmHg 61%
15:00 +30°C° 0.1 mm 3 mps 744 mmHg 61%
16:00 +30°C° 0 mm 3 mps 743 mmHg 61%
17:00 +30°C° 0 mm 2 mps 743 mmHg 60%
18:00 +29°C° 0 mm 2 mps 742 mmHg 59%
19:00 +28°C° 0.1 mm 2 mps 742 mmHg 63%
20:00 +26°C° 0.1 mm 2 mps 742 mmHg 67%
21:00 +24°C° 0.1 mm 2 mps 743 mmHg 71%
22:00 +23°C° 0.2 mm 2 mps 742 mmHg 72%
23:00 +23°C° 0.2 mm 2 mps 742 mmHg 73%
Show more